Location: Cicognara
(44.9500°N, 10.4667°E)
Time: 09:20:09
(UTC+00:00)

Cosmos 1844 - Pass Details

Date: 20 June 2021
Orbit: 823 x 867 km, 70.9° (Epoch: 04 August)

Event Time Altitude Azimuth Distance (km) Brightness Sun altitude
Rises 20:23:43 0° 333° (NNW) 3,371 8.6 -10.7°
Reaches altitude 10° 20:26:09 10° 333° (NNW) 2,437 7.5 -11.0°
Maximum altitude 20:31:44 83° 247° (WSW) 842 3.7 -11.6°
Enters shadow 20:36:27 15° 160° (SSE) 2,106 5.2 -12.1°
